This is the latest recevied weather packets stored in our database for station/object N0RPM-13. If no packets are shown the sender has not sent any weather packets the latest 10 day(s).
| Time | Temp. | Humidity | Pressure | Rain* | Wind** | Luminosity | Snow |
|---|---|---|---|---|---|---|---|
| 1787771170 | 25.56° C | 51% | 1015.6 hPa | 0 mm | - | 980 W/m² | - |
| 1787770866 | 25° C | 52% | 1015.5 hPa | 0 mm | - | 441 W/m² | - |
| 1787770564 | 25.56° C | 52% | 1015.5 hPa | 0 mm | - | 439 W/m² | - |
| 1787770264 | 25.56° C | 51% | 1015.6 hPa | 0 mm | - | 427 W/m² | - |
| 1787769963 | 25.56° C | 51% | 1015.5 hPa | 0 mm | - | 671 W/m² | - |
| 1787769658 | 25.56° C | 51% | 1015.3 hPa | 0 mm | - | 370 W/m² | - |
| 1787769356 | 25.56° C | 50% | 1015.5 hPa | 0 mm | - | 467 W/m² | - |
| 1787769051 | 25.56° C | 52% | 1015.6 hPa | 0 mm | - | 691 W/m² | - |
| 1787768747 | 25.56° C | 51% | 1015.5 hPa | 0 mm | - | 236 W/m² | - |
| 1787768443 | 26.11° C | 51% | 1015.6 hPa | 0 mm | - | 309 W/m² | - |
| 1787768138 | 26.11° C | 50% | 1015.5 hPa | 0 mm | - | 1065 W/m² | - |
| 1787767834 | 25.56° C | 51% | 1015.6 hPa | 0 mm | - | 976 W/m² | - |
| 1787767530 | 25° C | 53% | 1015.6 hPa | 0 mm | - | 624 W/m² | - |
| 1787767228 | 25° C | 53% | 1015.6 hPa | 0 mm | - | 279 W/m² | - |
| 1787766921 | 25° C | 53% | 1015.6 hPa | 0 mm | - | 223 W/m² | - |
| 1787766616 | 25° C | 53% | 1015.5 hPa | 0 mm | - | 641 W/m² | - |
| 1787766315 | 25° C | 56% | 1015.7 hPa | 0 mm | - | 277 W/m² | - |
| 1787766015 | 24.44° C | 55% | 1015.6 hPa | 0 mm | - | 302 W/m² | - |
| 1787765712 | 24.44° C | 56% | 1015.7 hPa | 0 mm | - | 993 W/m² | - |
| 1787765408 | 25° C | 55% | 1015.5 hPa | 0 mm | - | 249 W/m² | - |
| 1787765107 | 23.89° C | 60% | 1015.6 hPa | 0 mm | - | 988 W/m² | - |
| 1787764801 | 23.33° C | 61% | 1015.6 hPa | 0 mm | - | 216 W/m² | - |
| 1787764497 | 23.89° C | 59% | 1015.7 hPa | 0 mm | - | 138 W/m² | - |
| 1787764192 | 23.89° C | 58% | 1015.5 hPa | 0 mm | - | 204 W/m² | - |
| 1787763888 | 24.44° C | 58% | 1015.9 hPa | 0 mm | - | 288 W/m² | - |
* Rain latest hour (hover to see other rain measurements)
** Current wind speed in m/s (hover to see current wind gust speed)